Location: Carlisle
(34.5501°N, 84.5969°W)
Time: 13:16:54
(UTC+00:00)

FO-29 - Pass Details

Date: 11 April 2023
Orbit: 799 x 1322 km, 98.5° (Epoch: 03 June)

Event Time Altitude Azimuth Distance (km) Brightness Sun altitude
Rises 10:40:38 0° 10° (N) 4,061 13.1 -7.2°
Reaches altitude 10° 10:43:23 10° 10° (N) 3,025 12.4 -6.6°
Maximum altitude 10:50:13 77° 285° (WNW) 1,060 9.6 -5.3°
Drops below altitude 10° 10:56:09 10° 201° (SSW) 2,649 11.5 -4.1°
Sets 10:58:26 0° 199° (SSW) 3,527 12.1 -3.6°
